EW1587 Weather Reports


time (UTC)temp
F
wind
direction
speed
knots
gust
knots
rain 1hr
in
rain 24hr
in
rain mn
in
humidity
%
barometer
mb
20260901173549 83 244 0.0 2.6 0.00 0.00 0.00 48 1013.5
20260901173048 83 302 0.0 2.6 0.00 0.00 0.00 47 1013.5
20260901172547 83 300 0.0 1.7 0.00 0.00 0.00 46 1013.6
20260901172047 83 291 0.0 3.5 0.00 0.00 0.00 47 1013.7
20260901171548 83 293 0.0 3.5 0.00 0.00 0.00 50 1013.9
20260901171048 83 295 0.0 1.7 0.00 0.00 0.00 50 1013.8
20260901170545 82 69 0.0 1.7 0.00 0.00 0.00 51 1013.8
20260901170048 82 56 0.0 3.5 0.00 0.00 0.00 49 1013.7
20260901165546 82 56 0.9 3.5 0.00 0.00 0.00 52 1013.7
20260901165042 81 252 0.0 0.9 0.00 0.00 0.00 54 1013.9
20260901164541 80 293 0.0 1.7 0.00 0.00 0.00 55 1013.9
20260901164039 79 341 0.0 1.7 0.00 0.00 0.00 57 1013.7
20260901163539 78 56 0.0 5.2 0.00 0.00 0.00 58 1013.7
20260901163038 78 34 1.7 5.2 0.00 0.00 0.00 57 1013.8
20260901162537 78 67 0.9 4.3 0.00 0.00 0.00 56 1013.8
20260901162038 78 22 0.0 2.6 0.00 0.00 0.00 58 1013.8
20260901161538 77 266 0.0 2.6 0.00 0.00 0.00 61 1013.8
20260901161034 76 57 0.0 4.3 0.00 0.00 0.00 65 1013.8
20260901160533 75 92 0.9 5.2 0.00 0.00 0.00 65 1013.8
20260901160036 75 64 2.6 6.1 0.00 0.00 0.00 66 1013.7
20260901155535 75 50 0.9 4.3 0.00 0.00 0.00 67 1013.7
20260901155034 74 64 1.7 4.3 0.00 0.00 0.00 66 1013.6
20260901154531 74 66 0.9 5.2 0.00 0.00 0.00 67 1013.8
20260901154032 74 69 0.0 5.2 0.00 0.00 0.00 70 1013.7
20260901153532 74 75 0.9 5.2 0.00 0.00 0.00 66 1013.7
20260901153039 75 75 0.0 1.7 0.00 0.00 0.00 66 1013.8
20260901152531 75 30 0.0 2.6 0.00 0.00 0.00 67 1013.8
20260901152030 76 58 0.9 3.5 0.00 0.00 0.00 66 1013.9
20260901151530 76 79 0.0 1.7 0.00 0.00 0.00 66 1014.0
20260901151028 75 314 0.0 2.6 0.00 0.00 0.00 69 1013.9
20260901150526 75 1 0.0 2.6 0.00 0.00 0.00 67 1013.9
20260901150026 75 30 0.0 3.5 0.00 0.00 0.00 68 1013.9
20260901145525 74 29 0.0 3.5 0.00 0.00 0.00 70 1013.9
20260901145024 74 72 0.0 2.6 0.00 0.00 0.00 74 1014.0
20260901144522 74 23 0.0 1.7 0.00 0.00 0.00 74 1014.0
20260901144022 74 13 0.0 1.7 0.00 0.00 0.00 74 1014.0
20260901143521 73 333 0.0 4.3 0.00 0.00 0.00 74 1013.9
20260901143049 73 330 0.9 4.3 0.00 0.00 0.00 75 1013.9
20260901142518 73 56 0.0 1.7 0.00 0.00 0.00 78 1013.8
20260901142008 72 266 0.0 2.6 0.00 0.00 0.00 79 1013.9
20260901141505 71 267 0.0 4.3 0.00 0.00 0.00 81 1013.9
20260901141007 70 323 1.7 5.2 0.00 0.00 0.00 81 1014.0
20260901140502 70 290 1.7 5.2 0.00 0.00 0.00 83 1014.0
20260901140001 69 312 0.9 5.2 0.00 0.00 0.00 85 1014.1
20260901135604 69 301 3.5 5.2 0.00 0.00 0.00 84 1014.1
20260901135102 68 302 2.6 5.2 0.00 0.00 0.00 87 1014.0
20260901134606 68 295 3.5 4.3 0.00 0.00 0.00 88 1014.0
20260901134056 68 294 0.0 2.6 0.00 0.00 0.00 92 1014.1
20260901133555 67 295 0.0 0.9 0.00 0.00 0.00 92 1014.1
20260901133054 67 253 0.0 0.9 0.00 0.00 0.00 94 1014.0
20260901132554 66 259 0.0 0.9 0.00 0.00 0.00 94 1014.1
20260901132053 65 277 0.0 0.9 0.00 0.00 0.00 94 1014.1
20260901131557 65 297 0.0 0.9 0.00 0.00 0.00 94 1014.0
20260901131051 65 300 0.0 0.9 0.00 0.00 0.00 94 1013.9
20260901130552 65 280 0.0 0.9 0.00 0.00 0.00 94 1013.7
20260901130049 65 252 0.0 2.6 0.00 0.00 0.00 95 1013.7
20260901125551 64 246 0.0 3.5 0.00 0.00 0.00 96 1013.6
20260901125049 64 276 0.9 3.5 0.00 0.00 0.00 97 1013.7
20260901124549 64 286 0.9 2.6 0.00 0.00 0.00 97 1013.7
20260901124047 63 301 0.0 0.0 0.00 0.00 0.00 97 1013.6
20260901123547 63 301 0.0 0.0 0.00 0.00 0.00 98 1013.5
20260901123048 63 295 0.0 0.9 0.00 0.00 0.00 98 1013.5
20260901122546 62 283 0.0 2.6 0.00 0.00 0.00 98 1013.5
20260901122044 62 293 1.7 2.6 0.00 0.00 0.00 98 1013.5
20260901121548 62 284 0.0 1.7 0.00 0.00 0.00 98 1013.5
20260901121044 62 240 0.0 4.3 0.00 0.00 0.00 99 1013.5
20260901120543 62 283 1.7 4.3 0.00 0.00 0.00 100 1013.3
20260901120045 61 286 0.9 2.6 0.00 0.00 0.00 100 1013.1
20260901115541 61 302 0.0 0.9 0.00 0.00 0.00 100 1013.1
20260901115041 61 294 0.0 0.0 0.00 0.00 0.00 99 1013.1
20260901114543 61 294 0.0 0.9 0.00 0.00 0.00 99 1013.0
20260901114038 61 294 0.0 0.9 0.00 0.00 0.00 100 1012.8
20260901113542 61 283 0.0 2.6 0.00 0.00 0.00 100 1012.8
20260901113038 61 297 0.0 2.6 0.00 0.00 0.00 100 1012.9
20260901112536 61 288 0.0 1.7 0.00 0.00 0.00 100 1012.8
20260901112038 61 253 0.0 2.6 0.00 0.00 0.00 100 1012.8
20260901111537 60 278 0.0 2.6 0.00 0.00 0.00 100 1012.7
20260901111033 60 284 0.0 0.9 0.00 0.00 0.00 99 1012.7
20260901110532 60 287 0.0 0.0 0.00 0.00 0.00 99 1012.7
20260901110034 60 290 0.0 0.0 0.00 0.00 0.00 99 1012.6
20260901105531 60 290 0.0 0.0 0.00 0.00 0.00 99 1012.6
20260901105033 61 290 0.0 0.9 0.00 0.00 0.00 99 1012.5
20260901104533 61 290 0.0 0.9 0.00 0.00 0.00 99 1012.5
20260901104029 61 273 0.0 0.0 0.00 0.00 0.00 99 1012.6
20260901103528 61 273 0.0 0.0 0.00 0.00 0.00 99 1012.7
20260901103027 61 298 0.0 0.0 0.00 0.00 0.00 99 1012.6
20260901102527 61 298 0.0 0.9 0.00 0.00 0.00 99 1012.5
20260901102026 61 300 0.0 0.9 0.00 0.00 0.00 99 1012.5
20260901101526 61 307 0.0 0.9 0.00 0.00 0.00 99 1012.5
20260901101025 61 298 0.0 1.7 0.00 0.00 0.00 100 1012.6
20260901100524 61 308 0.0 1.7 0.00 0.00 0.00 100 1012.5
20260901100024 61 248 0.0 0.9 0.00 0.00 0.00 99 1012.5
20260901095524 61 246 0.0 0.0 0.00 0.00 0.00 99 1012.5
20260901095025 61 236 0.0 0.9 0.00 0.00 0.00 99 1012.4
20260901094527 61 240 0.0 0.9 0.00 0.00 0.00 99 1012.2
20260901094023 61 240 0.0 0.0 0.00 0.00 0.00 99 1012.2
20260901093527 61 240 0.0 0.0 0.00 0.00 0.00 99 1012.2
20260901093022 61 243 0.0 0.0 0.00 0.00 0.00 99 1012.2
20260901092522 61 243 0.0 0.0 0.00 0.00 0.00 99 1012.1
20260901092024 61 243 0.0 0.0 0.00 0.00 0.00 99 1012.0
20260901091523 61 244 0.0 0.0 0.00 0.00 0.00 99 1012.0
20260901091020 61 242 0.0 0.0 0.00 0.00 0.00 98 1012.0
20260901090520 61 228 0.0 0.0 0.00 0.00 0.00 98 1012.0
20260901090021 61 228 0.0 0.0 0.00 0.00 0.00 98 1012.1
20260901085520 61 228 0.0 0.0 0.00 0.00 0.00 98 1012.0
20260901085020 61 226 0.0 0.0 0.00 0.00 0.00 98 1012.0
20260901084519 61 226 0.0 0.9 0.00 0.00 0.00 98 1011.9
20260901084020 61 227 0.0 1.7 0.00 0.00 0.00 98 1011.8
20260901083518 61 233 0.0 1.7 0.00 0.00 0.00 98 1011.9
20260901083023 61 242 0.0 0.9 0.00 0.00 0.00 98 1012.0
20260901082516 61 242 0.0 0.0 0.00 0.00 0.00 98 1012.0
20260901082018 61 219 0.0 0.0 0.00 0.00 0.00 98 1011.9
20260901081518 61 164 0.0 0.0 0.00 0.00 0.00 97 1011.9
20260901081015 61 162 0.0 0.0 0.00 0.00 0.00 97 1011.9
20260901080514 61 162 0.0 0.0 0.00 0.00 0.00 97 1012.0
20260901080013 61 162 0.0 0.0 0.00 0.00 0.00 97 1011.9
20260901075512 61 162 0.0 0.0 0.00 0.00 0.00 96 1011.9
20260901075012 61 162 0.0 0.0 0.00 0.00 0.00 96 1012.0
20260901074511 61 162 0.0 0.0 0.00 0.00 0.00 96 1012.0
20260901074010 62 162 0.0 0.0 0.00 0.00 0.00 96 1012.0
20260901073510 62 162 0.0 0.0 0.00 0.00 0.00 96 1011.9
20260901073009 62 162 0.0 0.0 0.00 0.00 0.00 96 1012.0
20260901072509 62 162 0.0 0.9 0.00 0.00 0.00 96 1012.0
20260901072007 62 18 0.0 0.9 0.00 0.00 0.00 96 1012.1
20260901071508 62 22 0.0 0.9 0.00 0.00 0.00 96 1012.2
20260901071008 62 22 0.0 0.9 0.00 0.00 0.00 96 1012.3
20260901070506 62 22 0.0 0.0 0.00 0.00 0.00 95 1012.3
20260901070011 62 22 0.0 0.0 0.00 0.00 0.00 94 1012.4
20260901065505 62 22 0.0 0.0 0.00 0.00 0.00 94 1012.5
20260901065008 63 22 0.0 0.0 0.00 0.00 0.00 94 1012.4
20260901064506 63 22 0.0 0.0 0.00 0.00 0.00 94 1012.4
20260901064004 63 22 0.0 0.0 0.00 0.00 0.00 93 1012.4
20260901063502 63 22 0.0 0.0 0.00 0.00 0.00 93 1012.5
20260901063001 63 22 0.0 0.0 0.00 0.00 0.00 93 1012.5
20260901062501 63 16 0.0 0.0 0.00 0.00 0.00 93 1012.5
20260901062059 64 16 0.0 0.0 0.00 0.00 0.00 93 1012.6
20260901061600 64 16 0.0 0.0 0.00 0.00 0.00 92 1012.6
20260901061057 64 16 0.0 0.0 0.00 0.00 0.00 92 1012.6
20260901060556 64 16 0.0 0.0 0.00 0.00 0.00 92 1012.5
20260901060055 64 302 0.0 0.0 0.00 0.00 0.00 91 1012.4
20260901055554 65 302 0.0 0.0 0.00 0.00 0.00 90 1012.4
20260901055053 65 302 0.0 0.0 0.00 0.00 0.00 89 1012.2
20260901054554 66 302 0.0 0.0 0.00 0.00 0.00 89 1012.3
20260901054051 66 302 0.0 0.0 0.00 0.00 0.00 89 1012.3
20260901053551 66 294 0.0 0.9 0.00 0.00 0.00 89 1012.3
20260901053051 66 285 0.0 0.9 0.00 0.00 0.00 89 1012.3
20260901052548 66 296 0.0 0.9 0.00 0.00 0.00 90 1012.4
20260901052047 66 309 0.0 0.0 0.00 0.00 0.00 90 1012.3
20260901051547 67 305 0.0 0.0 0.00 0.00 0.00 91 1012.2
20260901051048 67 304 0.0 0.0 0.00 0.00 0.00 91 1012.3
20260901050546 67 295 0.0 0.9 0.00 0.00 0.00 91 1012.2
20260901050045 67 295 0.0 0.9 0.00 0.00 0.00 91 1012.1
20260901045545 67 295 0.0 0.0 0.00 0.00 0.00 91 1012.0
20260901045044 67 295 0.0 0.0 0.00 0.00 0.00 91 1012.0
20260901044547 67 295 0.0 0.9 0.00 0.00 0.00 91 1012.0
20260901044044 67 297 0.0 2.6 0.00 0.00 0.00 91 1012.0
20260901043544 67 290 0.0 2.6 0.00 0.00 0.00 91 1012.0
20260901043044 67 284 0.0 0.0 0.00 0.00 0.00 91 1012.0
20260901042547 67 282 0.0 0.9 0.00 0.00 0.00 91 1011.9
20260901042042 67 281 0.0 0.9 0.00 0.00 0.00 90 1011.8
20260901041559 67 284 0.0 0.0 0.00 0.00 0.00 90 1011.8
20260901041041 67 297 0.0 0.0 0.00 0.00 0.00 89 1011.8
20260901040541 67 296 0.0 0.0 0.00 0.00 0.00 89 1011.8
20260901040041 67 296 0.0 0.0 0.00 0.00 0.00 88 1011.8
20260901035541 68 305 0.0 0.0 0.00 0.00 0.00 86 1011.7
20260901035040 68 303 0.0 0.0 0.00 0.00 0.00 85 1011.7
20260901034541 68 305 0.0 1.7 0.00 0.00 0.00 85 1011.8
20260901034043 68 305 0.0 1.7 0.00 0.00 0.00 86 1011.8
20260901033539 68 302 0.0 0.9 0.00 0.00 0.00 86 1011.8
20260901033039 68 311 0.0 0.9 0.00 0.00 0.00 85 1011.8
20260901032539 69 293 0.0 0.0 0.00 0.00 0.00 85 1011.8
20260901032040 69 293 0.0 0.9 0.00 0.00 0.00 84 1011.9
20260901031538 70 290 0.0 0.9 0.00 0.00 0.00 85 1011.8
20260901031040 70 294 0.0 1.7 0.00 0.00 0.00 83 1011.7
20260901030637 70 288 0.0 1.7 0.00 0.00 0.00 82 1011.6
20260901030035 70 295 0.0 0.9 0.00 0.00 0.00 80 1011.5
20260901025536 71 307 0.0 0.9 0.00 0.00 0.00 79 1011.4
20260901025038 71 307 0.0 3.5 0.00 0.00 0.00 78 1011.3
20260901024535 71 304 0.9 3.5 0.00 0.00 0.00 79 1011.3
20260901024035 70 281 1.7 3.5 0.00 0.00 0.00 81 1011.3
20260901023535 70 285 0.9 2.6 0.00 0.00 0.00 84 1011.3
20260901023041 70 263 0.0 0.9 0.00 0.00 0.00 82 1011.3
20260901022534 70 305 0.0 2.6 0.00 0.00 0.00 82 1011.5
20260901022033 70 267 0.0 2.6 0.00 0.00 0.00 82 1011.4
20260901021535 70 280 0.9 2.6 0.00 0.00 0.00 83 1011.4
20260901021035 70 297 0.0 0.9 0.00 0.00 0.00 81 1011.3
20260901020533 71 297 0.0 0.9 0.00 0.00 0.00 81 1011.2
20260901020031 71 298 0.0 0.0 0.00 0.00 0.00 80 1011.2
20260901015533 71 298 0.0 0.0 0.00 0.00 0.00 78 1011.2
20260901015031 72 298 0.0 0.0 0.00 0.00 0.00 77 1011.2
20260901014530 72 298 0.0 0.0 0.00 0.00 0.00 77 1011.2
20260901014030 72 298 0.0 0.0 0.00 0.00 0.00 75 1011.1
20260901013530 72 298 0.0 0.9 0.00 0.00 0.00 74 1011.0
20260901013030 72 299 0.0 0.9 0.00 0.00 0.00 73 1011.0
20260901012528 72 283 0.0 0.9 0.00 0.00 0.00 73 1010.9
20260901012027 73 269 0.0 0.9 0.00 0.00 0.00 73 1010.9
20260901011527 73 283 0.0 0.0 0.00 0.00 0.00 73 1010.9
20260901011027 73 282 0.0 0.0 0.00 0.00 0.00 72 1010.8
20260901010527 74 282 0.0 0.0 0.00 0.00 0.00 71 1010.8
20260901010026 75 282 0.0 0.0 0.00 0.00 0.00 70 1010.8
20260901005526 76 282 0.0 0.0 0.00 0.00 0.00 69 1010.7
20260901005026 77 283 0.0 0.0 0.00 0.00 0.00 68 1010.7
20260901004525 78 303 0.0 0.0 0.00 0.00 0.00 67 1010.6
20260901004025 78 304 0.0 1.7 0.00 0.00 0.00 66 1010.6
20260901003528 79 303 0.0 4.3 0.00 0.00 0.00 64 1010.6
20260901003026 79 315 1.7 5.2 0.00 0.00 0.00 62 1010.6
20260901002525 80 294 2.6 5.2 0.00 0.00 0.00 60 1010.6
20260901002024 80 290 2.6 4.3 0.00 0.00 0.00 59 1010.7
20260901001524 81 307 0.9 3.5 0.00 0.00 0.00 60 1010.7
20260901001023 81 285 1.7 3.5 0.00 0.00 0.00 58 1010.6
20260901000524 81 295 1.7 4.3 0.00 0.00 0.00 58 1010.6
20260901000023 82 296 0.9 4.3 0.00 0.00 0.00 57 1010.6
20260831235527 82 288 2.6 4.3 0.00 0.00 0.00 55 1010.6
20260831235023 82 293 2.6 4.3 0.00 0.00 0.00 55 1010.6
20260831234524 82 287 2.6 4.3 0.00 0.00 0.00 55 1010.6
20260831234023 82 297 2.6 6.1 0.00 0.00 0.00 55 1010.6
20260831233526 82 295 4.3 6.1 0.00 0.00 0.00 53 1010.6
20260831233023 82 301 4.3 7.0 0.00 0.00 0.00 52 1010.6
20260831232523 83 282 3.5 7.0 0.00 0.00 0.00 52 1010.6
20260831232025 83 297 3.5 6.1 0.00 0.00 0.00 53 1010.6
20260831231529 84 263 0.9 6.1 0.00 0.00 0.00 53 1010.6
20260831231022 84 288 2.6 6.1 0.00 0.00 0.00 53 1010.6
20260831230521 84 276 2.6 6.1 0.00 0.00 0.00 53 1010.6
20260831230026 84 278 1.7 4.3 0.00 0.00 0.00 53 1010.6
20260831225521 84 239 0.0 6.1 0.00 0.00 0.00 53 1010.5
20260831225020 84 290 1.7 6.1 0.00 0.00 0.00 52 1010.5
20260831224519 85 269 2.6 6.1 0.00 0.00 0.00 52 1010.4
20260831224019 85 256 0.9 6.1 0.00 0.00 0.00 51 1010.4
20260831223520 85 275 0.9 6.1 0.00 0.00 0.00 50 1010.4
20260831223020 85 297 3.5 6.1 0.00 0.00 0.00 46 1010.4
20260831222520 86 295 1.7 7.0 0.00 0.00 0.00 48 1010.2
20260831222018 86 261 3.5 7.0 0.00 0.00 0.00 46 1010.3
20260831221518 86 298 1.7 6.1 0.00 0.00 0.00 48 1010.3
20260831221018 87 290 3.5 6.1 0.00 0.00 0.00 44 1010.3
20260831220522 88 286 1.7 4.3 0.00 0.00 0.00 45 1010.2
20260831220017 88 252 0.9 5.2 0.00 0.00 0.00 45 1010.3
20260831215517 87 276 0.0 5.2 0.00 0.00 0.00 47 1010.3
20260831215017 87 281 1.7 5.2 0.00 0.00 0.00 46 1010.3
20260831214515 87 294 0.9 7.0 0.00 0.00 0.00 46 1010.3
20260831214017 87 287 3.5 7.0 0.00 0.00 0.00 45 1010.4
20260831213516 87 290 0.9 6.1 0.00 0.00 0.00 47 1010.2
20260831213014 87 290 1.7 6.1 0.00 0.00 0.00 46 1010.1
20260831212515 88 298 2.6 6.1 0.00 0.00 0.00 46 1010.2
20260831212013 88 274 0.0 6.1 0.00 0.00 0.00 47 1010.2
20260831211524 89 313 0.9 3.5 0.00 0.00 0.00 45 1010.2
20260831211011 89 77 0.0 2.6 0.00 0.00 0.00 39 1010.3
20260831210510 88 271 0.9 4.3 0.00 0.00 0.00 40 1010.3
20260831210010 88 242 0.0 4.3 0.00 0.00 0.00 39 1010.2
20260831205510 88 298 0.9 4.3 0.00 0.00 0.00 40 1010.2
20260831205009 88 290 0.9 5.2 0.00 0.00 0.00 38 1010.2
20260831204511 88 297 1.7 5.2 0.00 0.00 0.00 38 1010.2
20260831204006 89 349 0.0 3.5 0.00 0.00 0.00 40 1010.3
20260831203507 89 307 1.7 3.5 0.00 0.00 0.00 40 1010.3
20260831203015 88 18 0.0 7.0 0.00 0.00 0.00 44 1010.3
20260831202504 87 320 0.9 7.0 0.00 0.00 0.00 42 1010.3
20260831202003 87 346 0.0 4.3 0.00 0.00 0.00 43 1010.3
20260831201504 87 47 0.9 4.3 0.00 0.00 0.00 44 1010.3
20260831201003 86 1 0.0 4.3 0.00 0.00 0.00 45 1010.4
20260831200502 86 315 2.6 4.3 0.00 0.00 0.00 45 1010.4
20260831200002 87 60 0.0 4.3 0.00 0.00 0.00 43 1010.3
20260831195504 87 69 0.9 4.3 0.00 0.00 0.00 42 1010.2
20260831195001 87 313 0.0 4.3 0.00 0.00 0.00 44 1010.1
20260831194623 87 65 1.7 4.3 0.00 0.00 0.00 41 1010.0
20260831194059 87 304 0.9 4.3 0.00 0.00 0.00 41 1010.1
20260831193600 86 16 0.0 4.3 0.00 0.00 0.00 43 1010.1
20260831193057 86 31 0.0 2.6 0.00 0.00 0.00 42 1010.1
20260831192559 85 6 0.0 6.1 0.00 0.00 0.00 44 1010.0
20260831192055 85 79 2.6 6.1 0.00 0.00 0.00 44 1009.9
20260831191555 85 54 0.0 7.0 0.00 0.00 0.00 45 1010.0
20260831191056 85 62 4.3 7.8 0.00 0.00 0.00 45 1010.0
20260831190554 85 285 1.7 7.0 0.00 0.00 0.00 45 1010.1
20260831190058 85 89 0.9 4.3 0.00 0.00 0.00 44 1010.1
20260831185553 85 14 0.9 4.3 0.00 0.00 0.00 47 1010.1
20260831185052 85 51 0.9 4.3 0.00 0.00 0.00 51 1010.2
20260831184552 85 320 0.9 4.3 0.00 0.00 0.00 54 1010.2
20260831184051 84 324 0.9 4.3 0.00 0.00 0.00 56 1010.0
20260831183550 84 25 0.9 4.3 0.00 0.00 0.00 53 1009.9
20260831183050 85 29 0.0 4.3 0.00 0.00 0.00 57 1010.0
20260831182553 86 71 0.0 5.2 0.00 0.00 0.00 53 1009.9
20260831182053 85 58 0.0 3.5 0.00 0.00 0.00 58 1009.9
20260831181548 84 341 0.0 4.3 0.00 0.00 0.00 55 1009.9
20260831181048 84 346 0.9 5.2 0.00 0.00 0.00 57 1010.0
20260831180548 83 336 0.9 5.2 0.00 0.00 0.00 60 1010.0
20260831180048 84 77 1.7 7.8 0.00 0.00 0.00 57 1010.0
20260831175548 85 67 2.6 7.8 0.00 0.00 0.00 56 1010.0
20260831175052 86 72 0.0 3.5 0.00 0.00 0.00 54 1010.0
20260831174547 86 328 0.0 3.5 0.00 0.00 0.00 55 1010.1
20260831174049 86 311 0.0 3.5 0.00 0.00 0.00 55 1010.1